When you browse on this site, cookies collect data to enhance your experience and personalize the content and advertising you see.
Visit our Privacy Policy to learn more. By continuing to use the site, you agree to this use of cookies and data.
EN

Hourly Weather Paro

Today, 25 September, Friday

Time Temperature Precipitation Wind Pressure Humidity
00:00 +15°C° 0.4 mm 0 mps 561 mmHg 98%
01:00 +15°C° 0.5 mm 0 mps 561 mmHg 98%
02:00 +15°C° 0.5 mm 0 mps 560 mmHg 98%
03:00 +15°C° 0.5 mm 0 mps 560 mmHg 98%
04:00 +15°C° 0.4 mm 0 mps 560 mmHg 98%
05:00 +15°C° 0.4 mm 0 mps 560 mmHg 98%
06:00 +15°C° 0.4 mm 0 mps 560 mmHg 98%
07:00 +16°C° 0.7 mm 0 mps 561 mmHg 97%
08:00 +16°C° 0.7 mm 0 mps 561 mmHg 96%
09:00 +18°C° 0.7 mm 1 mps 562 mmHg 95%
10:00 +18°C° 0.5 mm 1 mps 561 mmHg 96%
11:00 +18°C° 0.5 mm 1 mps 561 mmHg 96%
12:00 +18°C° 0.5 mm 1 mps 561 mmHg 97%
13:00 +18°C° 0.9 mm 1 mps 560 mmHg 97%
14:00 +18°C° 0.9 mm 1 mps 560 mmHg 97%
15:00 +18°C° 0.9 mm 1 mps 559 mmHg 98%
16:00 +18°C° 0.4 mm 1 mps 559 mmHg 98%
17:00 +15°C° 0.4 mm 0 mps 559 mmHg 98%
18:00 +15°C° 0.4 mm 0 mps 559 mmHg 99%
19:00 +15°C° 0.3 mm 0 mps 560 mmHg 98%
20:00 +15°C° 0.3 mm 0 mps 560 mmHg 98%
21:00 +15°C° 0.3 mm 0 mps 561 mmHg 98%
22:00 +15°C° 0.6 mm 0 mps 560 mmHg 98%
23:00 +15°C° 0.6 mm 0 mps 560 mmHg 98%

Tomorrow, 26 September, Saturday

Time Temperature Precipitation Wind Pressure Humidity
00:00 +15°C° 0.6 mm 0 mps 560 mmHg 98%
01:00 +15°C° 1.6 mm 0 mps 560 mmHg 99%
02:00 +15°C° 1.6 mm 0 mps 560 mmHg 99%
03:00 +16°C° 1.6 mm 1 mps 560 mmHg 99%
04:00 +15°C° 1.1 mm 0 mps 560 mmHg 99%
05:00 +15°C° 1.1 mm 0 mps 560 mmHg 99%
06:00 +14°C° 1.1 mm 0 mps 560 mmHg 98%
07:00 +15°C° 0.2 mm 0 mps 560 mmHg 97%
08:00 +18°C° 0.2 mm 1 mps 561 mmHg 95%
09:00 +18°C° 0.2 mm 1 mps 561 mmHg 94%
10:00 +18°C° 0.3 mm 2 mps 562 mmHg 88%
11:00 +19°C° 0.3 mm 2 mps 562 mmHg 83%
12:00 +20°C° 0.3 mm 2 mps 563 mmHg 77%
13:00 +20°C° 0.5 mm 2 mps 562 mmHg 80%
14:00 +20°C° 0.5 mm 2 mps 561 mmHg 82%
15:00 +19°C° 0.5 mm 2 mps 560 mmHg 85%
16:00 +18°C° 0.5 mm 2 mps 560 mmHg 89%
17:00 +17°C° 0.5 mm 2 mps 560 mmHg 94%
18:00 +16°C° 0.5 mm 1 mps 560 mmHg 98%
19:00 +16°C° 0.2 mm 1 mps 560 mmHg 98%
20:00 +16°C° 0.2 mm 1 mps 561 mmHg 98%
21:00 +15°C° 0.2 mm 0 mps 561 mmHg 98%
22:00 +15°C° 0.1 mm 0 mps 561 mmHg 97%
23:00 +14°C° 0.1 mm 0 mps 561 mmHg 96%

Day after tomorrow, 27 September, Sunday

Time Temperature Precipitation Wind Pressure Humidity
00:00 +14°C° 0.1 mm 0 mps 561 mmHg 96%
01:00 +14°C° 0.2 mm 0 mps 561 mmHg 96%
02:00 +14°C° 0.2 mm 0 mps 560 mmHg 96%
03:00 +14°C° 0.2 mm 0 mps 560 mmHg 96%
04:00 +14°C° 0.7 mm 0 mps 560 mmHg 96%
05:00 +14°C° 0.7 mm 0 mps 561 mmHg 97%
06:00 +14°C° 0.7 mm 0 mps 561 mmHg 97%
07:00 +14°C° 0.5 mm 0 mps 561 mmHg 96%
08:00 +15°C° 0.5 mm 0 mps 561 mmHg 96%
09:00 +15°C° 0.5 mm 0 mps 562 mmHg 96%
10:00 +15°C° 0.3 mm 0 mps 562 mmHg 94%
11:00 +18°C° 0.3 mm 1 mps 562 mmHg 91%
12:00 +19°C° 0.3 mm 1 mps 562 mmHg 89%
13:00 +19°C° 0.5 mm 1 mps 562 mmHg 87%
14:00 +20°C° 0.5 mm 1 mps 562 mmHg 85%
15:00 +20°C° 0.5 mm 2 mps 562 mmHg 83%
16:00 +19°C° 0.3 mm 1 mps 561 mmHg 88%
17:00 +18°C° 0.3 mm 1 mps 560 mmHg 93%
18:00 +16°C° 0.3 mm 1 mps 560 mmHg 98%
19:00 +15°C° 0.1 mm 1 mps 560 mmHg 97%
20:00 +14°C° 0.1 mm 0 mps 561 mmHg 97%
21:00 +14°C° 0.1 mm 0 mps 561 mmHg 96%
22:00 +14°C° 0 mm 0 mps 561 mmHg 96%
23:00 +13°C° 0 mm 0 mps 561 mmHg 95%

28 September, Monday

Time Temperature Precipitation Wind Pressure Humidity
00:00 +13°C° 0 mm 0 mps 561 mmHg 94%
01:00 +13°C° 0 mm 0 mps 561 mmHg 94%
02:00 +13°C° 0 mm 0 mps 560 mmHg 93%
03:00 +13°C° 0 mm 1 mps 560 mmHg 92%
04:00 +13°C° 0 mm 1 mps 560 mmHg 91%
05:00 +13°C° 0 mm 1 mps 560 mmHg 90%
06:00 +12°C° 0 mm 1 mps 560 mmHg 88%
07:00 +15°C° 0 mm 1 mps 562 mmHg 80%
08:00 +19°C° 0 mm 1 mps 563 mmHg 72%
09:00 +21°C° 0 mm 1 mps 565 mmHg 64%
10:00 +21°C° 0 mm 2 mps 565 mmHg 60%
11:00 +23°C° 0 mm 2 mps 565 mmHg 55%
12:00 +25°C° 0 mm 3 mps 565 mmHg 51%
13:00 +24°C° 0.1 mm 3 mps 564 mmHg 55%
14:00 +24°C° 0.1 mm 2 mps 564 mmHg 58%
15:00 +23°C° 0.1 mm 2 mps 563 mmHg 62%
16:00 +20°C° 0.1 mm 2 mps 562 mmHg 73%
17:00 +19°C° 0.1 mm 1 mps 561 mmHg 84%
18:00 +15°C° 0.1 mm 0 mps 560 mmHg 94%
19:00 +14°C° 0 mm 0 mps 560 mmHg 94%
20:00 +14°C° 0 mm 0 mps 561 mmHg 95%
21:00 +13°C° 0 mm 0 mps 561 mmHg 95%
22:00 +13°C° 0 mm 0 mps 561 mmHg 94%
23:00 +14°C° 0 mm 1 mps 561 mmHg 93%

29 September, Tuesday

Time Temperature Precipitation Wind Pressure Humidity
00:00 +14°C° 0 mm 1 mps 561 mmHg 92%
01:00 +14°C° 0 mm 1 mps 560 mmHg 91%
02:00 +13°C° 0 mm 1 mps 560 mmHg 89%
03:00 +13°C° 0 mm 1 mps 560 mmHg 88%
04:00 +13°C° 0 mm 1 mps 560 mmHg 85%
05:00 +13°C° 0 mm 1 mps 560 mmHg 83%
06:00 +13°C° 0 mm 1 mps 560 mmHg 81%
07:00 +15°C° 0 mm 1 mps 561 mmHg 73%
08:00 +19°C° 0 mm 1 mps 563 mmHg 65%
09:00 +22°C° 0 mm 1 mps 565 mmHg 57%
10:00 +23°C° 0 mm 2 mps 565 mmHg 55%
11:00 +24°C° 0 mm 2 mps 565 mmHg 53%
12:00 +25°C° 0 mm 3 mps 565 mmHg 51%
13:00 +24°C° 0.1 mm 2 mps 564 mmHg 56%
14:00 +23°C° 0.1 mm 2 mps 563 mmHg 62%
15:00 +23°C° 0.1 mm 2 mps 562 mmHg 68%
16:00 +20°C° 0.1 mm 2 mps 561 mmHg 77%
17:00 +19°C° 0.1 mm 1 mps 560 mmHg 86%
18:00 +16°C° 0.1 mm 1 mps 559 mmHg 96%
19:00 +15°C° 0.1 mm 0 mps 560 mmHg 96%
20:00 +15°C° 0.1 mm 0 mps 560 mmHg 96%
21:00 +14°C° 0.1 mm 0 mps 560 mmHg 96%
22:00 +14°C° 0 mm 0 mps 560 mmHg 95%
23:00 +14°C° 0 mm 0 mps 560 mmHg 94%

30 September, Wednesday

Time Temperature Precipitation Wind Pressure Humidity
00:00 +14°C° 0 mm 1 mps 560 mmHg 93%
01:00 +14°C° 0 mm 1 mps 560 mmHg 92%
02:00 +14°C° 0 mm 1 mps 559 mmHg 90%
03:00 +14°C° 0 mm 1 mps 559 mmHg 89%
04:00 +13°C° 0 mm 1 mps 559 mmHg 88%
05:00 +13°C° 0 mm 1 mps 559 mmHg 86%
06:00 +13°C° 0 mm 1 mps 559 mmHg 85%
07:00 +15°C° 0 mm 1 mps 561 mmHg 78%
08:00 +19°C° 0 mm 1 mps 562 mmHg 70%
09:00 +21°C° 0 mm 1 mps 564 mmHg 63%
10:00 +21°C° 0 mm 2 mps 564 mmHg 61%
11:00 +23°C° 0 mm 2 mps 564 mmHg 60%
12:00 +24°C° 0 mm 3 mps 564 mmHg 58%
13:00 +23°C° 0.2 mm 2 mps 563 mmHg 63%
14:00 +23°C° 0.2 mm 2 mps 562 mmHg 69%
15:00 +21°C° 0.2 mm 2 mps 561 mmHg 74%
16:00 +20°C° 0.2 mm 2 mps 561 mmHg 81%
17:00 +19°C° 0.2 mm 1 mps 560 mmHg 88%
18:00 +18°C° 0.2 mm 1 mps 560 mmHg 95%
19:00 +16°C° 0.1 mm 1 mps 560 mmHg 95%
20:00 +15°C° 0.1 mm 0 mps 560 mmHg 95%
21:00 +15°C° 0.1 mm 0 mps 560 mmHg 96%
22:00 +14°C° 0 mm 0 mps 560 mmHg 95%
23:00 +14°C° 0 mm 0 mps 560 mmHg 95%
Show more